DW4558 Weather Reports


time (UTC)temp
F
wind
direction
speed
knots
gust
knots
rain 1hr
in
rain 24hr
in
rain mn
in
humidity
%
barometer
mb
20260508060024 40 268 2.6 6.1 0.00 0.15 0.06 96 1004.1
20260508054523 40 223 2.6 3.5 0.01 0.15 0.06 95 1004.0
20260508053022 40 161 1.7 4.3 0.02 0.15 0.06 95 1004.0
20260508051529 40 120 0.9 5.2 0.03 0.15 0.06 95 1004.0
20260508050019 40 192 5.2 7.0 0.05 0.15 0.06 94 1004.2
20260508044519 41 200 1.7 7.0 0.05 0.14 0.05 94 1004.1
20260508043021 41 360 7.0 12.2 0.05 0.13 0.04 95 1004.2
20260508041517 41 249 4.3 10.4 0.03 0.12 0.02 95 1004.1
20260508040013 41 253 3.5 7.0 0.02 0.10 0.01 95 1004.0
20260508034511 41 224 2.6 4.3 0.02 0.09 0.09 95 1004.0
20260508033011 41 212 1.7 3.5 0.02 0.09 0.09 95 1003.9
20260508030010 42 69 0.9 3.5 0.02 0.08 0.08 94 1003.8
20260508024510 42 355 0.0 4.3 0.01 0.07 0.07 94 1003.8
20260508023010 42 19 2.6 5.2 0.01 0.07 0.07 94 1003.8
20260508021508 42 360 4.3 8.7 0.02 0.06 0.06 94 1003.7
20260508020012 42 20 2.6 7.0 0.02 0.06 0.06 94 1003.6
20260508014511 42 279 0.9 6.1 0.03 0.06 0.06 94 1003.5
20260508013009 42 287 2.6 7.8 0.03 0.06 0.06 93 1003.5
20260508011508 43 265 8.7 14.8 0.02 0.05 0.05 92 1003.5
20260508010007 43 264 7.8 13.0 0.01 0.04 0.04 91 1003.3
20260508004509 43 252 9.6 18.2 0.00 0.03 0.03 90 1003.2
20260508003106 44 256 9.6 17.4 0.00 0.03 0.03 87 1003.2
20260508001506 44 244 6.1 15.6 0.00 0.03 0.03 86 1002.9
20260508000006 45 237 8.7 15.6 0.00 0.03 0.03 85 1002.9
20260507234505 45 263 8.7 15.6 0.00 0.04 0.03 85 1002.7
20260507233004 45 267 10.4 18.2 0.00 0.04 0.03 84 1002.6
20260507231504 45 269 7.0 14.8 0.00 0.04 0.03 84 1002.5
20260507230003 46 252 10.4 14.8 0.00 0.04 0.03 85 1002.5
20260507224505 46 274 7.0 13.0 0.00 0.05 0.03 85 1002.5
20260507223002 46 273 7.0 13.9 0.00 0.05 0.03 84 1002.5
20260507221502 46 273 6.1 15.6 0.00 0.05 0.03 85 1002.5
20260507220001 45 243 6.1 12.2 0.00 0.05 0.03 88 1002.5
20260507214500 45 240 4.3 9.6 0.00 0.06 0.03 89 1002.4
20260507213101 44 240 7.0 14.8 0.00 0.06 0.03 87 1002.5
20260507211601 45 234 12.2 26.1 0.00 0.06 0.03 83 1002.8
20260507204559 46 266 9.6 17.4 0.00 0.06 0.03 88 1002.3
20260507203059 46 270 7.8 13.0 0.00 0.06 0.03 88 1002.2
20260507201609 46 240 8.7 13.9 0.01 0.06 0.03 90 1002.1
20260507200105 45 254 7.8 16.5 0.01 0.06 0.03 90 1002.2
20260507194557 45 250 10.4 19.1 0.01 0.08 0.03 91 1002.2
20260507193057 45 242 10.4 22.6 0.01 0.08 0.03 92 1002.4
20260507191556 45 241 13.9 22.6 0.02 0.07 0.02 92 1002.4
20260507190056 45 271 11.3 18.2 0.02 0.07 0.02 92 1002.5
20260507184559 45 265 9.6 20.9 0.02 0.14 0.02 92 1002.6
20260507183055 45 270 12.2 23.5 0.02 0.14 0.02 90 1002.6
20260507181554 46 246 11.3 27.8 0.00 0.12 0.00 86 1002.6
20260507180053 50 261 16.5 26.9 0.00 0.12 0.00 78 1002.4
20260507174602 51 242 18.2 29.5 0.00 0.19 0.00 75 1002.2
20260507173052 51 267 10.4 22.6 0.00 0.19 0.00 75 1002.2
20260507171601 52 237 13.9 26.1 0.00 0.19 0.00 77 1002.2
20260507170051 52 263 11.3 22.6 0.00 0.19 0.00 73 1002.3
20260507164547 51 257 15.6 24.3 0.00 0.28 0.00 79 1002.3
20260507163044 51 239 13.9 22.6 0.00 0.28 0.00 79 1002.5
20260507161540 49 292 15.6 25.2 0.00 0.28 0.00 82 1002.8
20260507160041 49 256 20.9 28.7 0.00 0.28 0.00 81 1003.0
20260507154537 49 240 18.2 27.8 0.00 0.39 0.00 84 1003.3
20260507153032 48 248 19.1 27.8 0.00 0.39 0.00 86 1003.4
20260507151531 47 248 14.8 20.9 0.00 0.39 0.00 87 1003.5
20260507150027 47 217 10.4 15.6 0.00 0.39 0.00 88 1003.5
20260507144529 46 249 10.4 19.1 0.00 0.46 0.00 89 1003.6
20260507143023 46 261 10.4 19.1 0.00 0.46 0.00 90 1003.6
20260507141523 46 279 8.7 18.2 0.00 0.46 0.00 90 1003.6
20260507140021 46 239 7.0 16.5 0.00 0.46 0.00 91 1003.7
20260507134521 45 267 13.9 21.7 0.00 0.52 0.00 91 1003.7
20260507133021 46 271 13.0 22.6 0.00 0.52 0.00 91 1003.7
20260507131520 45 259 12.2 20.9 0.00 0.52 0.00 91 1003.6
20260507130019 46 213 10.4 15.6 0.00 0.52 0.00 92 1003.5
20260507124516 45 286 11.3 19.1 0.00 0.55 0.00 92 1003.8
20260507123012 44 292 8.7 16.5 0.00 0.55 0.00 92 1003.9
20260507121511 44 252 10.4 18.2 0.00 0.55 0.00 92 1003.7
20260507120009 44 249 10.4 18.2 0.00 0.55 0.00 93 1003.7
20260507114507 44 250 8.7 20.9 0.00 0.55 0.00 93 1003.6
20260507113012 44 250 9.6 19.1 0.00 0.55 0.00 94 1003.8
20260507111506 43 252 9.6 14.8 0.00 0.55 0.00 94 1003.8
20260507110003 43 211 7.8 13.0 0.00 0.55 0.00 94 1003.7
20260507104611 42 257 7.8 12.2 0.00 0.55 0.00 94 1003.7
20260507103113 42 235 6.1 9.6 0.00 0.55 0.00 94 1003.7
20260507101557 41 251 5.2 9.6 0.00 0.55 0.00 94 1003.7
20260507100056 41 273 4.3 10.4 0.00 0.55 0.00 95 1003.5
20260507094554 41 268 4.3 12.2 0.00 0.55 0.00 95 1003.4
20260507093058 40 203 5.2 13.9 0.00 0.55 0.00 95 1003.4
20260507091554 40 240 7.0 12.2 0.00 0.55 0.00 95 1003.6
20260507090048 40 244 7.0 12.2 0.00 0.55 0.00 95 1003.7
20260507084547 40 252 7.0 13.9 0.00 0.55 0.00 95 1003.9
20260507083044 41 229 7.0 12.2 0.00 0.55 0.00 95 1004.0
20260507081543 41 248 8.7 13.0 0.00 0.55 0.00 95 1003.8
20260507080044 41 233 6.1 12.2 0.00 0.55 0.00 96 1004.0
20260507074539 41 254 5.2 10.4 0.00 0.55 0.00 96 1004.0
20260507073039 41 227 7.0 13.0 0.00 0.55 0.00 96 1004.1
20260507071539 41 242 7.8 14.8 0.00 0.55 0.00 96 1003.9
20260507070036 41 259 7.0 13.9 0.00 0.55 0.00 97 1003.9
20260507064534 41 248 7.0 14.8 0.00 0.55 0.00 97 1003.9
20260507063042 41 238 7.8 13.0 0.00 0.55 0.00 97 1004.0
20260507061533 41 244 6.1 12.2 0.00 0.55 0.00 97 1004.1